This demonstration page uses our WeatherBlox Daily Observations layout. Learn more.

41.55636, -103.73856

Hourly Observations for May 6, 2018

Temp ( °F °C ) Dew Point ( °F °C ) Humidity (%) Winds ( mph kmh ) Pressure ( in mb ) Visibility ( mi km ) Precip ( " mm )
12:58 am 00:58 Mostly Cloudy 50 10.1 41 4.9 70 70 W 5 7 30.16 1021 10 16.0934 N/A
1:58 am 01:58 Partly Cloudy 48 8.7 42 5.3 79 79 W 3 6 30.15 1021 10 16.0934 N/A
2:58 am 02:58 Mostly Clear 47 8.4 41 5 79 79 WNW 5 7 30.16 1021 10 16.0934 N/A
3:58 am 03:58 Clear 48 9.1 40 4.5 73 73 WSW 6 9 30.15 1021 10 16.0934 N/A
4:58 am 04:58 Clear 47 8.1 40 4.3 77 77 WSW 6 9 30.18 1022 10 16.0934 N/A
5:58 am 05:58 Sunny 47 8.4 39 3.9 74 74 WSW 5 7 30.17 1022 10 16.0934 N/A
6:58 am 06:58 Mostly Sunny 49 9.4 43 6.1 80 80 Calm 30.19 1022 10 16.0934 N/A
7:58 am 07:58 Sunny 59 14.9 42 5.7 54 54 ENE 6 9 30.18 1022 10 16.0934 N/A
8:58 am 08:58 Sunny 62 16.6 40 4.6 45 45 ESE 8 13 30.18 1022 10 16.0934 N/A
9:58 am 09:58 Sunny 64 17.9 41 4.9 42 42 SE 9 15 30.18 1022 10 16.0934 N/A
10:58 am 10:58 Sunny 66 18.9 42 5.5 42 42 SE 12 19 30.19 1022 10 16.0934 N/A
11:58 am 11:58 Sunny 69 20.7 40 4.7 35 35 SE 17 28 30.17 1022 10 16.0934 N/A
12:58 pm 12:58 Sunny 69 20.8 37 2.6 30 30 S 12 19 30.16 1021 10 16.0934 N/A
1:58 pm 13:58 Mostly Sunny 71 21.9 38 3.2 29 29 SSE 9 15 30.15 1021 10 16.0934 N/A
2:58 pm 14:58 Sunny 73 22.6 37 2.5 27 27 S 10 17 30.13 1020 10 16.0934 N/A
3:58 pm 15:58 Sunny 74 23.2 38 3.6 28 28 SSE 14 22 30.11 1020 10 16.0934 N/A
4:58 pm 16:58 Mostly Sunny 74 23.1 38 3.3 27 27 S 12 19 30.11 1020 10 16.0934 N/A
5:58 pm 17:58 Mostly Sunny 70 21.3 41 5 35 35 SSE 10 17 30.11 1020 10 16.0934 N/A
6:58 pm 18:58 Mostly Cloudy 65 18.4 46 7.5 49 49 ESE 7 11 30.13 1020 10 16.0934 N/A
7:58 pm 19:58 Mostly Clear 60 15.8 43 6.2 53 53 E 12 19 30.11 1020 10 16.0934 N/A
8:58 pm 20:58 Mostly Clear 60 15.3 42 5.5 52 52 ESE 12 19 30.12 1020 10 16.0934 N/A
9:58 pm 21:58 Mostly Clear 58 14.4 44 6.9 61 61 SE 15 24 30.12 1020 10 16.0934 N/A
10:58 pm 22:58 Partly Cloudy 54 12.3 45 7.1 71 71 SE 13 20 30.13 1020 10 16.0934 N/A
11:58 pm 23:58 Clear 55 12.9 43 5.9 63 63 SSE 17 28 30.11 1020 10 16.0934 N/A

Powered by AerisWeather